Flag for Germany Weather past 2 weeks in Bamberg, Bavaria, Germany

Now
50 °F

Fog.


Feels Like: 50 °F
Forecast: 44 / 71 °F
Wind: 1 mph from South

Location: Bamberg

Current Time: Aug 27, 2014 at 10:59:25 PM

Latest Report: Aug 27, 2014 at 10:00 PM


Visibility: 4 mi

Pressure: 30.08 "Hg

Humidity: 98%

Dew point: 50 °F

Location of BambergLocation

Historic Weather in Bamberg — Graph

°F

Bamberg temperature yesterday

Maximum temperature yesterday: 63 °F (at 3:00 PM)
Minimum temperature yesterday: 53 °F (at 4:00 AM)
Average temperature yesterday: 58 °F

Past Weeks' High & Low Weather Summary

 TemperatureHumidityPressure
High71 °F (Aug 17, 4:00 PM)100% (Aug 15, 2:00 AM)30.15 "Hg (Aug 15, 2:00 AM)
Low41 °F (Aug 25, 6:00 AM)39% (Aug 22, 5:00 PM)29.66 "Hg (Aug 13, 5:00 PM)
Average57 °F83%29.94 "Hg
* Reported Aug 12 11:00 PM — Aug 27 10:00 PM, Bamberg, Weather by CustomWeather, © 2014

Note: Actual official high and low records may vary slightly from our data, if they occured in-between our weather recording intervals... More about our weather records

Advertising

Bamberg weather history for previous 24 hours

 ConditionsComfort  
Time TempWeatherWind HumidityBarometerVisibility
10:00 PM
Aug 27
50 °FFog.1 mph98%30.08 "Hg4 mi
9:00 PM53 °FClear.1 mph97%30.07 "Hg10 mi
8:00 PM58 °FSunny.1 mph87%30.04 "Hg19 mi
7:00 PM66 °FScattered clouds.1 mph54%30.02 "Hg40 mi
6:00 PM67 °FSunny.1 mph48%30.01 "Hg37 mi
5:00 PM67 °FSunny.2 mph48%30.01 "Hg40 mi
4:00 PM68 °FPartly sunny.3 mph51%30.00 "Hg34 mi
3:00 PM67 °FSunny.2 mph47%30.00 "Hg37 mi
2:00 PM65 °FPassing clouds.3 mph51%30.00 "Hg28 mi
1:00 PM64 °FOvercast.1 mph61%30.00 "Hg28 mi
12:00 PM62 °FScattered clouds.2 mph71%30.00 "Hg19 mi
11:00 AM60 °FScattered clouds.3 mph75%29.98 "Hg17 mi
10:00 AM58 °FOvercast.3 mph84%29.96 "Hg19 mi
9:00 AM56 °FOvercast.3 mph94%29.94 "Hg16 mi
8:00 AM55 °FOvercast.1 mph96%29.91 "Hg11 mi
7:00 AM54 °FOvercast.2 mph96%29.88 "Hg9 mi
6:00 AM54 °FOvercast.2 mph97%29.85 "Hg8 mi
5:00 AM54 °FDrizzle. Overcast.3 mph98%29.83 "Hg7 mi
4:00 AM54 °FLight rain. Overcast.1 mph97%29.80 "Hg7 mi
3:00 AM55 °FDrizzle. Overcast.2 mph98%29.78 "Hg9 mi
2:00 AM55 °FRain. Low clouds.3 mph99%29.78 "Hg1 mi
1:00 AM56 °FLight rain. Passing clouds.3 mph98%29.78 "Hg8 mi
12:00 AM56 °FRain. Low clouds.1 mph97%29.77 "Hg1 mi
11:00 PM
Aug 26
58 °FLight rain. Passing clouds.1 mph98%29.75 "Hg4 mi
10:00 PM58 °FLight rain. Low clouds.2 mph95%29.75 "Hg5 mi
Weather by CustomWeather, © 2014

See weather overviewHow to use our weather pages